Regional Weather Roundup
Issued by NWS

Home | Current Version | Previous Version | Text Only | Print | Product List | Glossary On
Versions: 1 2 3 4 5 6 7 8 9 10 11 12 13 14 15 16 17 18 19 20 21 22 23 24 25 26 27 28 29 30 31 32 33 34 35 36 37 38 39 40 41 42 43 44 45 46 47 48 49 50
000
ASUS43 KDMX 172006
RWRIA

WEATHER ROUNDUP FOR IOWA
NATIONAL WEATHER SERVICE DES MOINES IA
200 PM CST FRI NOV 17 2017

NOTE: "FAIR" INDICATES FEW OR NO CLOUDS BELOW 12,000 FEET WITH NO
SIGNIFICANT WEATHER AND/OR OBSTRUCTIONS TO VISIBILITY.

* - THESE STATIONS ARE NOT NWS STATIONS...THUS NOT UNDER NWS
QUALITY CONTROL.  THEY ALSO DO NOT REPORT WEATHER SUCH
AS PRECIPITATION OR FOG.

IAZ001>003-012>014-020>022-031>034-043>046-172100-
   NORTHWEST IOWA

CITY           SKY/WX    TMP DP  RH WIND       PRES   REMARKS
CARROLL *      CLOUDY    52  48  87 SW10      29.54S
CHEROKEE *     CLOUDY    55  49  82 CALM      29.53F
DENISON *      CLOUDY    54  52  94 SW3       29.54F FOG
LE MARS *      CLOUDY    55  45  67 NW13      29.55R
ORANGE CITY *  MOSUNNY   54  46  76 NW8       29.55S
SHELDON *      CLOUDY    54  43  66 NW12      29.54S
SIOUX CITY     CLOUDY    54  40  59 N20       29.53S
SPENCER        CLOUDY    51  44  77 CALM      29.56R
STORM LAKE *   CLOUDY    52  48  87 SW6       29.54S
$$

IAZ055>058-069>071-079>083-090>094-172100-
   SOUTHWEST IOWA

CITY           SKY/WX    TMP DP  RH WIND       PRES   REMARKS
ATLANTIC *     CLOUDY    54  54 100 S9        29.52F
AUDUBON *      CLOUDY    52  48  87 CALM      29.53F
CLARINDA *     CLOUDY    55  55 100 S7          N/A
COUNCIL BLFS * CLOUDY    57  57 100 S5        29.51F FOG
CRESTON *      CLOUDY    52  50  93 S15       29.54F FOG
HARLAN  *      CLOUDY    54  54 100 SW8G14    29.56R
LAMONI         CLOUDY    52  51  97 S8        29.56F FOG
RED OAK *      CLOUDY    55  55 100 S9        29.52F FOG
SHENANDOAH *   CLOUDY    61  57  88 S10       29.51F FOG
$$

IAZ047>049-059>061-072>074-084-172100-
   CENTRAL IOWA

CITY           SKY/WX    TMP DP  RH WIND       PRES   REMARKS
AMES           CLOUDY    48  47  96 S12       29.56F FOG
ANKENY *       CLOUDY    48  46  93 S13       29.56F FOG
BOONE *        CLOUDY    48  46  93 S13       29.54F
CHARITON *     PTSUNNY   50  50 100 SE10G17   29.56F FOG
DES MOINES     CLOUDY    50  48  93 SE14      29.55F FOG
GRINNELL*      DRIZZLE   43  41  93 SE14G21   29.60F
KNOXVILLE *    CLOUDY    48  45  87 SE12G17   29.55F FOG
MARSHALLTOWN   CLOUDY    44  42  93 S17       29.57F FOG
NEWTON *       CLOUDY    45  43  93 SE14G21   29.57F FOG
PELLA *        CLOUDY    46  42  86 SE12      29.60F FOG
PERRY *        CLOUDY    50  48  93 S9        29.54F
$$

IAZ004>006-015-016-023>025-035-036-172100-
   NORTH CENTRAL IOWA

CITY           SKY/WX    TMP DP  RH WIND       PRES   REMARKS
ALGONA *       CLOUDY    45  45 100 SE7       29.57S FOG
CLARION *      CLOUDY    45  45 100 S12       29.57S FOG
ESTHERVILLE    CLOUDY    44  41  89 S5        29.57R
FORT DODGE *   LGT RAIN  48  45  89 S8        29.56S FOG
MASON CITY     FOG       39  39 100 S7        29.61R VSB 1   WCI  34
FOREST CITY *  DRIZZLE   41  41 100 S3        29.59S
WEBSTER CITY * CLOUDY    46  45  93 SE10      29.55R
IOWA FALLS *   DRIZZLE   44  42  93 SE10      29.59S
$$

IAZ007>011-017>019-026>030-037>042-050>054-066-172100-
   NORTHEAST IOWA

CITY           SKY/WX    TMP DP  RH WIND       PRES   REMARKS
CEDAR RAPIDS   CLOUDY    40  40 100 S13       29.63F FOG     WCI  32
CHARLES CITY * FOG       39  39 100 S9G16     29.61S VSB 1   WCI  33
CLINTON *      CLOUDY    41  37  86 SE15G25   29.70F FOG
DECORAH *      FOG       37  36  93 S10G16    29.61F VSB 1   WCI  30
DUBUQUE        CLOUDY    37  36  96 S16       29.66F FOG     WCI  28
MONTICELLO *   MIX PCPN  39  39 100 SE14      29.66F WCI  31
OELWEIN *      FOG       37  37 100 SE17G23   29.62F VSB 1/4 WCI  28
WATERLOO       CLOUDY    39  38  96 S14       29.60F FOG     WCI  31
$$

IAZ064-065-067-068-078-172100-
   EAST CENTRAL IOWA

CITY           SKY/WX    TMP DP  RH WIND       PRES   REMARKS
DAVENPORT      CLOUDY    42  37  82 S17G24    29.70F HAZE
IOWA CITY      CLOUDY    44  40  85 S10       29.68F FOG
MT. PLEASANT * CLOUDY    44  39  83 S15G21    29.67F HAZE
MUSCATINE *    CLOUDY    43  39  87 SE13      29.68F FOG
QUAD CITIES    CLOUDY    43  37  79 S12       29.69F HAZE
$$

IAZ062-063-075>077-085>089-095>099-172100-
   SOUTHEAST IOWA

CITY           SKY/WX    TMP DP  RH WIND       PRES   REMARKS
BURLINGTON     CLOUDY    44  41  89 S13G21    29.68F FOG
FAIRFIELD *    CLOUDY    46  41  81 SE13      29.63F
FORT MADISON * CLOUDY    45  43  93 SE13G22   29.68F FOG
KEOKUK *       CLOUDY    48  43  81 SE13      29.67F
OSKALOOSA *    CLOUDY    46  41  84 S15       29.61F
OTTUMWA        CLOUDY    48  41  76 SE12      29.61F
WASHINGTON *   CLOUDY    45  43  93 S13G18    29.66F
$$

ABBREVIATIONS USED IN REMARKS
   TC - TEMPERATURES IN CELSIUS
  WCI - WIND CHILL INDEX
   HX - HEAT INDEX
  VSB - VISIBILITY
$$




USA.gov is the U.S. government's official web portal to all federal, state and local government web resources and services.